Fort Drum, NY
on Friday, December 8, 2017

Friday
       
Previous Day Next Day
Daily Summary
 ActualAverageRecord
Temperature
Mean Temperature °F °C °F °C  
Max Temperature 30°F -1°C 34°F 1°C 44°F 6°C (2004)
Min Temperature 21°F -6°C 20°F -6°C -9°F -22°C (2008)
Degree Days
Heating Degree Days 40    
Moisture
Dew Point 22°F -6°C   
Average Humidity 82    
Maximum Humidity 93    
Minimum Humidity 59    
Precipitation
Precipitation 0.00 in / 0.00 cm in / cm in / cm ()
Snow
Snow 0.00 in / 0.00 cm in / cm in / cm ()
Snow Depth 11.00 in / 27.94 cm   
Wind
Wind Speed 9 mph / 14 km/h   
Max Wind Speed 20 mph / 32 km/h   
Max Gust Speed 23 mph / 37 km/h   
Visibility 5 miles / 9 kilometers   
Events Snow   
Averages and records for this station are not official NWS values.
Key: T is trace of precipitation, MM is missing value
Source: NWS Daily Summary
Seasonal Weather Averages
Time(EST)TemperatureDew PointHumidity Pressure Visibility Wind DirectionWind SpeedGust SpeedPrecipitationEvents Conditions
12:56 AM 25.3°F -3.7°C 18.9°F -7.3°C 76% 29.92 in / 1013.1 hPa 10.0 miles / 16.1 kilometers West 4.6 mph / 7.4 km/h - N/A   Clear
1:28 AM 24.8°F -4.0°C 17.6°F -8.0°C 74% 29.89 in / 1012.1 hPa 10.0 miles / 16.1 kilometers SW 4.6 mph / 7.4 km/h - N/A   Scattered Clouds
1:29 AM 24.8°F -4.0°C 17.6°F -8.0°C 74% 29.89 in / 1012.1 hPa 10.0 miles / 16.1 kilometers SW 4.6 mph / 7.4 km/h - N/A Snow Light Snow
1:47 AM 24.8°F -4.0°C 19.4°F -7.0°C 80% 29.89 in / 1012.1 hPa 10.0 miles / 16.1 kilometers SW 3.5 mph / 5.6 km/h - N/A   Partly Cloudy
1:56 AM 23.7°F -4.6°C 19.9°F -6.7°C 85% 29.88 in / 1011.7 hPa 10.0 miles / 16.1 kilometers Calm Calm - 0.00 in / 0.0 cm   Scattered Clouds
2:56 AM 24.1°F -4.4°C 20.5°F -6.4°C 86% 29.89 in / 1012.1 hPa 10.0 miles / 16.1 kilometers South 9.2 mph / 14.8 km/h - N/A Snow Light Snow
3:06 AM 24.8°F -4.0°C 21.2°F -6.0°C 86% 29.89 in / 1012.1 hPa 8.0 miles / 12.9 kilometers SSW 8.1 mph / 13.0 km/h - N/A Snow Light Snow
3:22 AM 26.6°F -3.0°C 23.0°F -5.0°C 86% 29.89 in / 1012.1 hPa 10.0 miles / 16.1 kilometers SW 5.8 mph / 9.3 km/h - N/A   Overcast
3:28 AM 26.6°F -3.0°C 23.0°F -5.0°C 86% 29.89 in / 1012.1 hPa 10.0 miles / 16.1 kilometers SW 8.1 mph / 13.0 km/h - N/A Snow Light Snow
3:38 AM 26.6°F -3.0°C 24.8°F -4.0°C 93% 29.90 in / 1012.4 hPa 4.0 miles / 6.4 kilometers WSW 9.2 mph / 14.8 km/h - N/A Snow Blowing Snow
3:42 AM 26.6°F -3.0°C 24.8°F -4.0°C 93% 29.90 in / 1012.4 hPa 2.8 miles / 4.4 kilometers WSW 9.2 mph / 14.8 km/h - N/A Snow Blowing Snow
3:47 AM 26.6°F -3.0°C 24.8°F -4.0°C 93% 29.90 in / 1012.4 hPa 1.6 miles / 2.6 kilometers WSW 10.4 mph / 16.7 km/h - N/A Snow Blowing Snow
3:52 AM 26.6°F -3.0°C 24.8°F -4.0°C 93% 29.90 in / 1012.4 hPa 0.8 miles / 1.2 kilometers West 8.1 mph / 13.0 km/h - N/A Snow Blowing Snow
3:56 AM 27.0°F -2.8°C 24.4°F -4.2°C 90% 29.90 in / 1012.4 hPa 0.6 miles / 1.0 kilometers West 6.9 mph / 11.1 km/h - 0.00 in / 0.0 cm Snow Light Snow
4:01 AM 26.6°F -3.0°C 24.8°F -4.0°C 93% 29.90 in / 1012.4 hPa 0.8 miles / 1.2 kilometers West 5.8 mph / 9.3 km/h - N/A Snow Light Snow
4:06 AM 26.6°F -3.0°C 24.8°F -4.0°C 93% 29.90 in / 1012.4 hPa 0.9 miles / 1.4 kilometers West 6.9 mph / 11.1 km/h - N/A Snow Light Snow
4:11 AM 26.6°F -3.0°C 24.8°F -4.0°C 93% 29.90 in / 1012.4 hPa 0.8 miles / 1.2 kilometers West 5.8 mph / 9.3 km/h - N/A Snow Light Snow
4:17 AM 26.6°F -3.0°C 24.8°F -4.0°C 93% 29.90 in / 1012.4 hPa 0.8 miles / 1.2 kilometers WSW 4.6 mph / 7.4 km/h - N/A Snow Light Snow
4:22 AM 26.6°F -3.0°C 24.8°F -4.0°C 93% 29.91 in / 1012.8 hPa 1.0 miles / 1.6 kilometers WSW 10.4 mph / 16.7 km/h - N/A Snow Light Snow
4:27 AM 28.4°F -2.0°C 24.8°F -4.0°C 86% 29.91 in / 1012.8 hPa 1.1 miles / 1.8 kilometers WSW 8.1 mph / 13.0 km/h - N/A Snow Light Snow
4:37 AM 28.4°F -2.0°C 24.8°F -4.0°C 86% 29.91 in / 1012.8 hPa 2.8 miles / 4.4 kilometers WSW 10.4 mph / 16.7 km/h - N/A Snow Light Snow
4:42 AM 26.6°F -3.0°C 24.8°F -4.0°C 93% 29.91 in / 1012.8 hPa 1.4 miles / 2.2 kilometers SW 12.7 mph / 20.4 km/h - N/A Snow Light Snow
4:47 AM 26.6°F -3.0°C 24.8°F -4.0°C 93% 29.91 in / 1012.8 hPa 0.5 miles / 0.8 kilometers WSW 9.2 mph / 14.8 km/h - N/A Snow Snow
4:56 AM 27.3°F -2.6°C 25.5°F -3.6°C 93% 29.92 in / 1013.1 hPa 0.6 miles / 1.0 kilometers SW 9.2 mph / 14.8 km/h - 0.00 in / 0.0 cm Snow Snow
5:01 AM 26.6°F -3.0°C 24.8°F -4.0°C 93% 29.92 in / 1013.1 hPa 0.9 miles / 1.4 kilometers SSW 15.0 mph / 24.1 km/h - N/A Snow Light Snow
5:06 AM 26.6°F -3.0°C 23.0°F -5.0°C 86% 29.92 in / 1013.1 hPa 1.0 miles / 1.6 kilometers SSW 13.8 mph / 22.2 km/h - N/A Snow Light Snow
5:11 AM 26.6°F -3.0°C 23.0°F -5.0°C 86% 29.92 in / 1013.1 hPa 0.8 miles / 1.2 kilometers SSW 12.7 mph / 20.4 km/h - N/A Snow Light Snow
5:16 AM 26.6°F -3.0°C 23.0°F -5.0°C 86% 29.92 in / 1013.1 hPa 0.4 miles / 0.6 kilometers SSW 11.5 mph / 18.5 km/h - N/A Snow Snow
5:31 AM 24.8°F -4.0°C 23.0°F -5.0°C 93% 29.91 in / 1012.8 hPa 0.4 miles / 0.6 kilometers SSW 12.7 mph / 20.4 km/h - N/A Snow Snow
5:36 AM 24.8°F -4.0°C 23.0°F -5.0°C 93% 29.91 in / 1012.8 hPa 0.5 miles / 0.8 kilometers SSW 12.7 mph / 20.4 km/h - N/A Snow Snow
5:46 AM 24.8°F -4.0°C 23.0°F -5.0°C 93% 29.91 in / 1012.8 hPa 0.5 miles / 0.8 kilometers SSW 10.4 mph / 16.7 km/h - N/A Snow Snow
5:51 AM 24.8°F -4.0°C 23.0°F -5.0°C 93% 29.91 in / 1012.8 hPa 1.5 miles / 2.4 kilometers SSW 13.8 mph / 22.2 km/h - N/A Snow Light Snow
5:56 AM 25.0°F -3.9°C 22.5°F -5.3°C 90% 29.91 in / 1012.8 hPa 2.5 miles / 4.0 kilometers SSW 12.7 mph / 20.4 km/h - 0.00 in / 0.0 cm Snow Light Snow
6:06 AM 24.8°F -4.0°C 23.0°F -5.0°C 93% 29.91 in / 1012.8 hPa 0.9 miles / 1.4 kilometers SSW 12.7 mph / 20.4 km/h - N/A Snow Light Snow
6:11 AM 24.8°F -4.0°C 23.0°F -5.0°C 93% 29.91 in / 1012.8 hPa 0.4 miles / 0.6 kilometers SSW 12.7 mph / 20.4 km/h - N/A Snow Snow
6:21 AM 24.8°F -4.0°C 23.0°F -5.0°C 93% 29.91 in / 1012.8 hPa 0.4 miles / 0.6 kilometers SSW 11.5 mph / 18.5 km/h - N/A Snow Snow
6:31 AM 24.8°F -4.0°C 23.0°F -5.0°C 93% 29.91 in / 1012.8 hPa 0.5 miles / 0.8 kilometers SW 12.7 mph / 20.4 km/h - N/A Snow Snow
6:36 AM 24.8°F -4.0°C 23.0°F -5.0°C 93% 29.91 in / 1012.8 hPa 0.4 miles / 0.6 kilometers SW 12.7 mph / 20.4 km/h - N/A Snow Snow
6:41 AM 24.8°F -4.0°C 23.0°F -5.0°C 93% 29.91 in / 1012.8 hPa 0.2 miles / 0.4 kilometers SW 13.8 mph / 22.2 km/h - N/A Snow Heavy Snow
6:46 AM 24.8°F -4.0°C 23.0°F -5.0°C 93% 29.91 in / 1012.8 hPa 0.5 miles / 0.8 kilometers SW 15.0 mph / 24.1 km/h - N/A Snow Snow
6:56 AM 25.3°F -3.7°C 22.8°F -5.1°C 90% 29.90 in / 1012.4 hPa 1.4 miles / 2.2 kilometers SW 11.5 mph / 18.5 km/h - 0.00 in / 0.0 cm Snow Light Snow
7:06 AM 26.6°F -3.0°C 23.0°F -5.0°C 86% 29.90 in / 1012.4 hPa 1.4 miles / 2.2 kilometers WSW 8.1 mph / 13.0 km/h - N/A Snow Light Snow
7:16 AM 26.6°F -3.0°C 23.0°F -5.0°C 86% 29.90 in / 1012.4 hPa 1.5 miles / 2.4 kilometers WSW 5.8 mph / 9.3 km/h - N/A Snow Light Snow
7:26 AM 26.6°F -3.0°C 23.0°F -5.0°C 86% 29.90 in / 1012.4 hPa 0.9 miles / 1.4 kilometers SW 5.8 mph / 9.3 km/h - N/A Snow Blowing Snow
7:31 AM 26.6°F -3.0°C 23.0°F -5.0°C 86% 29.90 in / 1012.4 hPa 1.9 miles / 3.0 kilometers SW 4.6 mph / 7.4 km/h - N/A Snow Light Snow
7:41 AM 26.6°F -3.0°C 21.2°F -6.0°C 80% 29.90 in / 1012.4 hPa 8.0 miles / 12.9 kilometers SSW 6.9 mph / 11.1 km/h - N/A Snow Light Snow
7:45 AM 26.6°F -3.0°C 21.2°F -6.0°C 80% 29.90 in / 1012.4 hPa 10.0 miles / 16.1 kilometers SW 9.2 mph / 14.8 km/h - N/A   Overcast
7:55 AM 26.6°F -3.0°C 21.2°F -6.0°C 80% 29.90 in / 1012.4 hPa 10.0 miles / 16.1 kilometers SW 10.4 mph / 16.7 km/h - N/A   Overcast
7:56 AM 26.8°F -2.9°C 21.4°F -5.9°C 80% 29.92 in / 1013.1 hPa 10.0 miles / 16.1 kilometers SW 10.4 mph / 16.7 km/h - 0.00 in / 0.0 cm   Overcast
8:16 AM 26.6°F -3.0°C 21.2°F -6.0°C 80% 29.92 in / 1013.1 hPa 10.0 miles / 16.1 kilometers SW 8.1 mph / 13.0 km/h - N/A   Overcast
8:26 AM 26.6°F -3.0°C 21.2°F -6.0°C 80% 29.92 in / 1013.1 hPa 10.0 miles / 16.1 kilometers SW 8.1 mph / 13.0 km/h - N/A   Mostly Cloudy
8:56 AM 27.7°F -2.4°C 21.0°F -6.1°C 76% 29.92 in / 1013.1 hPa 10.0 miles / 16.1 kilometers SSW 12.7 mph / 20.4 km/h - N/A   Overcast
9:36 AM 28.4°F -2.0°C 21.2°F -6.0°C 74% 29.92 in / 1013.1 hPa 9.0 miles / 14.5 kilometers SW 16.1 mph / 25.9 km/h - N/A Snow Light Snow
9:41 AM 28.4°F -2.0°C 21.2°F -6.0°C 74% 29.92 in / 1013.1 hPa 7.0 miles / 11.3 kilometers SW 16.1 mph / 25.9 km/h 23.0 mph / 37.0 km/h N/A Snow Light Snow
9:56 AM 28.4°F -2.0°C 21.2°F -6.0°C 74% 29.95 in / 1014.1 hPa 10.0 miles / 16.1 kilometers SW 11.5 mph / 18.5 km/h 23.0 mph / 37.0 km/h 0.00 in / 0.0 cm Snow Light Snow
9:57 AM 28.4°F -2.0°C 21.2°F -6.0°C 74% 29.95 in / 1014.1 hPa 10.0 miles / 16.1 kilometers SW 12.7 mph / 20.4 km/h - N/A   Scattered Clouds
10:06 AM 28.4°F -2.0°C 21.2°F -6.0°C 74% 29.95 in / 1014.1 hPa 10.0 miles / 16.1 kilometers SW 12.7 mph / 20.4 km/h - N/A   Scattered Clouds
10:24 AM 30.2°F -1.0°C 19.4°F -7.0°C 64% 29.94 in / 1013.7 hPa 9.0 miles / 14.5 kilometers SW 17.3 mph / 27.8 km/h 19.6 mph / 31.5 km/h N/A Snow Light Snow
10:34 AM 28.4°F -2.0°C 23.0°F -5.0°C 80% 29.94 in / 1013.8 hPa 2.8 miles / 4.4 kilometers SW 10.4 mph / 16.7 km/h - N/A Snow Blowing Snow
10:44 AM 28.4°F -2.0°C 24.8°F -4.0°C 86% 29.94 in / 1013.8 hPa 1.8 miles / 2.8 kilometers SW 8.1 mph / 13.0 km/h 18.4 mph / 29.6 km/h N/A Snow Blowing Snow
10:54 AM 28.4°F -2.0°C 24.8°F -4.0°C 86% 29.94 in / 1013.8 hPa 4.0 miles / 6.4 kilometers SW 13.8 mph / 22.2 km/h - N/A Snow Light Snow
10:56 AM 28.2°F -2.1°C 24.1°F -4.4°C 84% 29.94 in / 1013.8 hPa 4.0 miles / 6.4 kilometers SW 13.8 mph / 22.2 km/h - 0.00 in / 0.0 cm Snow Light Snow
11:19 AM 30.2°F -1.0°C 24.8°F -4.0°C 80% 29.93 in / 1013.4 hPa 10.0 miles / 16.1 kilometers SW 18.4 mph / 29.6 km/h 23.0 mph / 37.0 km/h N/A   Mostly Cloudy
11:20 AM 30.2°F -1.0°C 23.0°F -5.0°C 75% 29.93 in / 1013.4 hPa 10.0 miles / 16.1 kilometers SW 19.6 mph / 31.5 km/h 23.0 mph / 37.0 km/h N/A Snow Light Snow
11:56 AM 28.2°F -2.1°C 23.7°F -4.6°C 83% 29.94 in / 1013.8 hPa 1.4 miles / 2.2 kilometers SW 13.8 mph / 22.2 km/h 23.0 mph / 37.0 km/h 0.00 in / 0.0 cm Snow Light Snow
12:06 PM 28.4°F -2.0°C 23.0°F -5.0°C 80% 29.94 in / 1013.8 hPa 2.2 miles / 3.6 kilometers SW 12.7 mph / 20.4 km/h - N/A Snow Light Snow
12:26 PM 28.4°F -2.0°C 23.0°F -5.0°C 80% 29.93 in / 1013.5 hPa 1.9 miles / 3.0 kilometers SW 17.3 mph / 27.8 km/h - N/A Snow Light Snow
12:36 PM 28.4°F -2.0°C 23.0°F -5.0°C 80% 29.92 in / 1013.2 hPa 3.0 miles / 4.8 kilometers SW 16.1 mph / 25.9 km/h 23.0 mph / 37.0 km/h N/A Snow Light Snow
12:56 PM 28.0°F -2.2°C 21.7°F -5.7°C 77% 29.92 in / 1013.2 hPa 8.0 miles / 12.9 kilometers SSW 15.0 mph / 24.1 km/h - 0.00 in / 0.0 cm Snow Light Snow
1:56 PM 28.2°F -2.1°C 20.7°F -6.3°C 73% 29.89 in / 1012.1 hPa 9.0 miles / 14.5 kilometers SSW 13.8 mph / 22.2 km/h - 0.00 in / 0.0 cm Snow Light Snow
1:58 PM 28.4°F -2.0°C 21.2°F -6.0°C 74% 29.89 in / 1012.1 hPa 10.0 miles / 16.1 kilometers SSW 16.1 mph / 25.9 km/h - N/A   Overcast
2:48 PM 28.4°F -2.0°C 19.4°F -7.0°C 69% 29.89 in / 1012.2 hPa 10.0 miles / 16.1 kilometers SSW 18.4 mph / 29.6 km/h - N/A   Overcast
2:56 PM 28.4°F -2.0°C 19.9°F -6.7°C 71% 29.89 in / 1012.1 hPa 10.0 miles / 16.1 kilometers SSW 17.3 mph / 27.8 km/h - 0.00 in / 0.0 cm   Overcast
3:46 PM 28.4°F -2.0°C 19.4°F -7.0°C 69% 29.89 in / 1012.1 hPa 10.0 miles / 16.1 kilometers SSW 16.1 mph / 25.9 km/h - N/A   Overcast
3:56 PM 28.6°F -1.9°C 19.0°F -7.2°C 67% 29.89 in / 1012.1 hPa 10.0 miles / 16.1 kilometers SSW 17.3 mph / 27.8 km/h - N/A   Overcast
4:56 PM 27.7°F -2.4°C 17.8°F -7.9°C 66% 29.89 in / 1012.1 hPa 10.0 miles / 16.1 kilometers South 12.7 mph / 20.4 km/h - N/A   Overcast
5:56 PM 25.3°F -3.7°C 15.8°F -9.0°C 67% 29.87 in / 1011.4 hPa 10.0 miles / 16.1 kilometers South 13.8 mph / 22.2 km/h - N/A   Scattered Clouds
6:06 PM 24.8°F -4.0°C 15.8°F -9.0°C 69% 29.88 in / 1011.7 hPa 10.0 miles / 16.1 kilometers South 11.5 mph / 18.5 km/h 18.4 mph / 29.6 km/h N/A   Scattered Clouds
6:56 PM 23.7°F -4.6°C 15.6°F -9.1°C 71% 29.91 in / 1012.9 hPa 10.0 miles / 16.1 kilometers South 13.8 mph / 22.2 km/h - N/A   Clear
7:31 PM 23.0°F -5.0°C 14.0°F -10.0°C 68% 29.90 in / 1012.5 hPa 10.0 miles / 16.1 kilometers South 9.2 mph / 14.8 km/h - N/A   Clear
7:56 PM 21.7°F -5.7°C 14.0°F -10.0°C 72% 29.91 in / 1012.9 hPa 10.0 miles / 16.1 kilometers South 10.4 mph / 16.7 km/h - N/A   Clear
8:56 PM 26.4°F -3.1°C 15.4°F -9.2°C 63% 29.90 in / 1012.5 hPa 10.0 miles / 16.1 kilometers SSW 18.4 mph / 29.6 km/h 23.0 mph / 37.0 km/h N/A   Overcast
9:56 PM 27.1°F -2.7°C 15.1°F -9.4°C 60% 29.88 in / 1011.7 hPa 10.0 miles / 16.1 kilometers South 15.0 mph / 24.1 km/h - N/A   Mostly Cloudy
10:56 PM 27.3°F -2.6°C 14.9°F -9.5°C 60% 29.90 in / 1012.5 hPa 10.0 miles / 16.1 kilometers SSW 15.0 mph / 24.1 km/h - N/A   Mostly Cloudy
11:56 PM 26.6°F -3.0°C 14.0°F -10.0°C 59% 29.86 in / 1011.1 hPa 10.0 miles / 16.1 kilometers SW 10.4 mph / 16.7 km/h - N/A   Scattered Clouds